Flag for U.S.A. Weather past 2 weeks in Hialeah, Florida, U.S.A.

Now
87 °F

Sunny.


Feels Like: 91 °F
Forecast: 76 / 89 °F
Wind: 13 mph from South

Location: Opa Locka Airport

Current Time: Apr 19, 2015 at 11:21:46 AM

Latest Report: Apr 19, 2015 at 10:53 AM


Visibility: 10 mi

Pressure: 29.98 "Hg

Humidity: 53%

Dew point: 68 °F

Location of HialeahLocation

Historic Weather in Hialeah — Graph

°F

Hialeah temperature yesterday

Maximum temperature yesterday: 90 °F (at 3:53 PM)
Minimum temperature yesterday: 74 °F (at 6:53 AM)
Average temperature yesterday: 82 °F

Past Weeks' High & Low Weather Summary

 TemperatureHumidityPressure
High90 °F (Apr 18, 3:53 PM)93% (Apr 5, 5:53 AM)30.18 "Hg (Apr 5, 5:53 AM)
Low69 °F (Apr 5, 4:53 AM)45% (Apr 4, 12:53 PM)29.92 "Hg (Apr 18, 4:53 PM)
Average80 °F69%30.09 "Hg
* Reported Apr 4 9:53 AM — Apr 19 9:53 AM, Hialeah, Weather by CustomWeather, © 2015

Note: Actual official high and low records may vary slightly from our data, if they occured in-between our weather recording intervals... More about our weather records

Advertising

Hialeah weather history for previous 24 hours

 ConditionsComfort  
Time TempWeatherWind HumidityBarometerVisibility
9:53 AM
Sun, Apr 19
85 °FPassing clouds.10 mph63%29.99 "Hg10 mi
8:53 AM81 °FPassing clouds.8 mph74%30.00 "Hg10 mi
7:53 AM78 °FPassing clouds.No wind79%29.98 "Hg10 mi
6:53 AM76 °FClear.3 mph82%29.97 "Hg10 mi
5:53 AM76 °FClear.6 mph82%29.95 "Hg10 mi
4:53 AM77 °FClear.6 mph82%29.95 "Hg10 mi
3:53 AM78 °FPassing clouds.5 mph79%29.95 "Hg10 mi
2:53 AM77 °FClear.5 mph77%29.96 "Hg10 mi
1:53 AM77 °FClear.7 mph77%29.96 "Hg10 mi
12:53 AM80 °FPassing clouds.3 mph71%29.99 "Hg10 mi
11:53 PM
Sat, Apr 18
80 °FOvercast.5 mph69%30.00 "Hg10 mi
10:53 PM80 °FClear.3 mph71%30.01 "Hg10 mi
9:53 PM81 °FPassing clouds.6 mph72%30.00 "Hg10 mi
8:53 PM82 °FClear.8 mph67%29.97 "Hg10 mi
7:53 PM83 °FPassing clouds.10 mph65%29.93 "Hg10 mi
6:53 PM84 °FPassing clouds.12 mph61%29.92 "Hg10 mi
5:53 PM85 °FPassing clouds.12 mph59%29.92 "Hg10 mi
4:53 PM88 °FSunny.10 mph50%29.92 "Hg10 mi
3:53 PM90 °FPartly sunny.9 mph47%29.93 "Hg10 mi
2:53 PM89 °FPartly sunny.8 mph48%29.96 "Hg10 mi
1:53 PM89 °FSunny.9 mph48%29.98 "Hg10 mi
12:53 PM88 °FScattered clouds.13 mph48%29.99 "Hg10 mi
11:53 AM88 °FPassing clouds.8 mph52%30.02 "Hg10 mi
Weather by CustomWeather, © 2015

See weather overviewHow to use our weather pages